���t,����,�O�C���x,�����t���O,�O�C���Ύ��x,�����t���O,���ԉ��x,�����t���O,���ԑ��Ύ��x,�����t���O,�g�C������,�����t���O,�L�b�`�����x,�����t���O,��󒲎����x,�����t���O
2003/12/1,0:00,14.6,0,53,0,=,1,=,1,20.9,0,=,1,=,1
2003/12/1,0:15,14.6,0,50,0,=,1,=,1,20.9,0,=,1,=,1
2003/12/1,0:30,14.6,0,52,0,=,1,=,1,20.8,0,=,1,=,1
2003/12/1,0:45,14.5,0,55,0,=,1,=,1,20.8,0,=,1,=,1
2003/12/1,1:00,14.6,0,56,0,=,1,=,1,20.8,0,=,1,=,1
2003/12/1,1:15,14.5,0,55,0,=,1,=,1,20.8,0,=,1,=,1
2003/12/1,1:30,14.5,0,56,0,=,1,=,1,20.7,0,=,1,=,1
2003/12/1,1:45,14.5,0,55,0,=,1,=,1,20.7,0,=,1,=,1
2003/12/1,2:00,14.4,0,54,0,=,1,=,1,20.7,0,=,1,=,1
2003/12/1,2:15,14.4,0,54,0,=,1,=,1,20.7,0,=,1,=,1
2003/12/1,2:30,14.3,0,53,0,=,1,=,1,20.6,0,=,1,=,1
2003/12/1,2:45,14.2,0,52,0,=,1,=,1,20.6,0,=,1,=,1
2003/12/1,3:00,14.2,0,53,0,=,1,=,1,20.6,0,=,1,=,1
2003/12/1,3:15,14.1,0,52,0,=,1,=,1,20.5,0,=,1,=,1
2003/12/1,3:30,14.1,0,53,0,=,1,=,1,20.5,0,=,1,=,1
2003/12/1,3:45,14.1,0,53,0,=,1,=,1,20.5,0,=,1,=,1
2003/12/1,4:00,14.2,0,55,0,=,1,=,1,20.4,0,=,1,=,1
2003/12/1,4:15,14.2,0,56,0,=,1,=,1,20.4,0,=,1,=,1
2003/12/1,4:30,14,0,52,0,=,1,=,1,20.4,0,=,1,=,1
2003/12/1,4:45,14.1,0,55,0,=,1,=,1,20.3,0,=,1,=,1
2003/12/1,5:00,14,0,51,0,=,1,=,1,20.3,0,=,1,=,1
2003/12/1,5:15,14,0,51,0,=,1,=,1,20.2,0,=,1,=,1
2003/12/1,5:30,13.9,0,52,0,=,1,=,1,20.2,0,=,1,=,1
2003/12/1,5:45,13.9,0,54,0,=,1,=,1,20.2,0,=,1,=,1
2003/12/1,6:00,13.8,0,55,0,=,1,=,1,20.1,0,=,1,=,1
2003/12/1,6:15,13.8,0,53,0,=,1,=,1,20.1,0,=,1,=,1
2003/12/1,6:30,13.8,0,52,0,=,1,=,1,20,0,=,1,=,1
2003/12/1,6:45,13.8,0,54,0,=,1,=,1,20,0,=,1,=,1
2003/12/1,7:00,13.7,0,54,0,=,1,=,1,20,0,=,1,=,1
2003/12/1,7:15,13.8,0,53,0,=,1,=,1,20.1,0,=,1,=,1
2003/12/1,7:30,13.8,0,52,0,=,1,=,1,20.2,0,=,1,=,1
2003/12/1,7:45,13.9,0,54,0,=,1,=,1,20.2,0,=,1,=,1
2003/12/1,8:00,13.8,0,52,0,=,1,=,1,20.2,0,=,1,=,1
2003/12/1,8:15,13.9,0,57,0,=,1,=,1,20.2,0,=,1,=,1
2003/12/1,8:30,14,0,58,0,=,1,=,1,20.2,0,=,1,=,1
2003/12/1,8:45,14.1,0,60,0,=,1,=,1,20,0,=,1,=,1
2003/12/1,9:00,14.5,0,58,0,=,1,=,1,20,0,=,1,=,1
2003/12/1,9:15,14.9,0,52,0,=,1,=,1,19.9,0,=,1,=,1
2003/12/1,9:30,14.8,0,53,0,=,1,=,1,19.7,0,=,1,=,1
2003/12/1,9:45,15.2,0,53,0,=,1,=,1,19.7,0,=,1,=,1
2003/12/1,10:00,15.5,0,50,0,=,1,=,1,19.7,0,=,1,=,1
2003/12/1,10:15,18.8,0,42,0,=,1,=,1,19.7,0,=,1,=,1
2003/12/1,10:30,17.2,0,44,0,=,1,=,1,19.7,0,=,1,=,1
2003/12/1,10:45,16.4,0,50,0,=,1,=,1,19.7,0,=,1,=,1
2003/12/1,11:00,16.3,0,51,0,=,1,=,1,19.7,0,=,1,=,1
2003/12/1,11:15,18,0,45,0,=,1,=,1,19.7,0,=,1,=,1
2003/12/1,11:30,16.7,0,48,0,=,1,=,1,19.6,0,=,1,=,1
2003/12/1,11:45,17,0,46,0,=,1,=,1,19.6,0,=,1,=,1
2003/12/1,12:00,17.1,0,47,0,=,1,=,1,19.5,0,=,1,=,1
2003/12/1,12:15,18.2,0,43,0,=,1,=,1,19.5,0,=,1,=,1
2003/12/1,12:30,17.6,0,45,0,=,1,=,1,19.5,0,=,1,=,1
2003/12/1,12:45,17.2,0,48,0,=,1,=,1,19.4,0,=,1,=,1
2003/12/1,13:00,17.9,0,47,0,=,1,=,1,19.4,0,=,1,=,1
2003/12/1,13:15,18.4,0,45,0,=,1,=,1,19.4,0,=,1,=,1
2003/12/1,13:30,17.4,0,48,0,=,1,=,1,19.4,0,=,1,=,1
2003/12/1,13:45,17.9,0,46,0,=,1,=,1,19.3,0,=,1,=,1
2003/12/1,14:00,17,0,50,0,=,1,=,1,19.3,0,=,1,=,1
2003/12/1,14:15,16.6,0,52,0,=,1,=,1,19.3,0,=,1,=,1
2003/12/1,14:30,16.3,0,52,0,=,1,=,1,19.3,0,=,1,=,1
2003/12/1,14:45,16.4,0,51,0,=,1,=,1,19.3,0,=,1,=,1
2003/12/1,15:00,16.1,0,51,0,=,1,=,1,19.3,0,=,1,=,1
2003/12/1,15:15,15.8,0,52,0,=,1,=,1,19.3,0,=,1,=,1
2003/12/1,15:30,15.7,0,54,0,=,1,=,1,19.3,0,=,1,=,1
2003/12/1,15:45,15.6,0,53,0,=,1,=,1,19.3,0,=,1,=,1
2003/12/1,16:00,15.4,0,55,0,=,1,=,1,19.3,0,=,1,=,1
2003/12/1,16:15,15.3,0,55,0,=,1,=,1,19.2,0,=,1,=,1
2003/12/1,16:30,15.1,0,55,0,=,1,=,1,19.2,0,=,1,=,1
2003/12/1,16:45,14.9,0,55,0,=,1,=,1,19.2,0,=,1,=,1
2003/12/1,17:00,14.9,0,55,0,=,1,=,1,19.2,0,=,1,=,1
2003/12/1,17:15,14.8,0,53,0,=,1,=,1,19.2,0,=,1,=,1
2003/12/1,17:30,14.8,0,53,0,=,1,=,1,19.2,0,=,1,=,1
2003/12/1,17:45,14.8,0,52,0,=,1,=,1,19.2,0,=,1,=,1
2003/12/1,18:00,14.6,0,53,0,=,1,=,1,19.3,0,=,1,=,1
2003/12/1,18:15,14.6,0,54,0,=,1,=,1,19.3,0,=,1,=,1
2003/12/1,18:30,14.5,0,54,0,=,1,=,1,19.3,0,=,1,=,1
2003/12/1,18:45,14.7,0,52,0,=,1,=,1,19.3,0,=,1,=,1
2003/12/1,19:00,14.5,0,54,0,=,1,=,1,19.4,0,=,1,=,1
2003/12/1,19:15,14.6,0,53,0,=,1,=,1,19.4,0,=,1,=,1
2003/12/1,19:30,14.5,0,51,0,=,1,=,1,19.5,0,=,1,=,1
2003/12/1,19:45,14.5,0,50,0,=,1,=,1,19.6,0,=,1,=,1
2003/12/1,20:00,14.5,0,53,0,=,1,=,1,19.6,0,=,1,=,1
2003/12/1,20:15,14.5,0,52,0,=,1,=,1,19.7,0,=,1,=,1
2003/12/1,20:30,14.5,0,51,0,=,1,=,1,19.8,0,=,1,=,1
2003/12/1,20:45,14.4,0,55,0,=,1,=,1,19.9,0,=,1,=,1
2003/12/1,21:00,14.5,0,55,0,=,1,=,1,19.9,0,=,1,=,1
2003/12/1,21:15,14.3,0,52,0,=,1,=,1,20,0,=,1,=,1
2003/12/1,21:30,14.3,0,54,0,=,1,=,1,20.2,0,=,1,=,1
2003/12/1,21:45,14.4,0,53,0,=,1,=,1,20.2,0,=,1,=,1
2003/12/1,22:00,14.1,0,52,0,=,1,=,1,20.2,0,=,1,=,1
2003/12/1,22:15,14.3,0,54,0,=,1,=,1,20.2,0,=,1,=,1
2003/12/1,22:30,14.3,0,54,0,=,1,=,1,20.3,0,=,1,=,1
2003/12/1,22:45,14.2,0,53,0,=,1,=,1,20.4,0,=,1,=,1
2003/12/1,23:00,14.1,0,55,0,=,1,=,1,20.4,0,=,1,=,1
2003/12/1,23:15,14.1,0,55,0,=,1,=,1,20.4,0,=,1,=,1
2003/12/1,23:30,14.1,0,53,0,=,1,=,1,20.4,0,=,1,=,1
2003/12/1,23:45,14,0,53,0,=,1,=,1,20.4,0,=,1,=,1
2003/12/2,0:00,14,0,55,0,=,1,=,1,20.4,0,=,1,=,1
2003/12/2,0:15,14,0,53,0,=,1,=,1,20.3,0,=,1,=,1
2003/12/2,0:30,13.9,0,55,0,=,1,=,1,20.3,0,=,1,=,1
2003/12/2,0:45,14,0,56,0,=,1,=,1,20.3,0,=,1,=,1
2003/12/2,1:00,13.9,0,54,0,=,1,=,1,20.3,0,=,1,=,1
2003/12/2,1:15,13.9,0,54,0,=,1,=,1,20.3,0,=,1,=,1
2003/12/2,1:30,13.9,0,54,0,=,1,=,1,20.3,0,=,1,=,1
2003/12/2,1:45,13.9,0,55,0,=,1,=,1,20.3,0,=,1,=,1
2003/12/2,2:00,13.9,0,54,0,=,1,=,1,20.3,0,=,1,=,1
2003/12/2,2:15,14,0,55,0,=,1,=,1,20.3,0,=,1,=,1
2003/12/2,2:30,14,0,55,0,=,1,=,1,20.3,0,=,1,=,1
2003/12/2,2:45,14,0,54,0,=,1,=,1,20.2,0,=,1,=,1
2003/12/2,3:00,14,0,55,0,=,1,=,1,20.2,0,=,1,=,1
2003/12/2,3:15,13.9,0,58,0,=,1,=,1,20.2,0,=,1,=,1
2003/12/2,3:30,13.8,0,56,0,=,1,=,1,20.2,0,=,1,=,1
2003/12/2,3:45,13.9,0,55,0,=,1,=,1,20.1,0,=,1,=,1
2003/12/2,4:00,14,0,57,0,=,1,=,1,20.1,0,=,1,=,1
2003/12/2,4:15,13.9,0,58,0,=,1,=,1,20.1,0,=,1,=,1
2003/12/2,4:30,13.9,0,57,0,=,1,=,1,20,0,=,1,=,1
2003/12/2,4:45,13.9,0,56,0,=,1,=,1,20,0,=,1,=,1
2003/12/2,5:00,13.8,0,58,0,=,1,=,1,20,0,=,1,=,1
2003/12/2,5:15,13.6,0,60,0,=,1,=,1,20,0,=,1,=,1
2003/12/2,5:30,13.8,0,59,0,=,1,=,1,19.9,0,=,1,=,1
2003/12/2,5:45,13.8,0,57,0,=,1,=,1,19.9,0,=,1,=,1
2003/12/2,6:00,13.9,0,59,0,=,1,=,1,19.9,0,=,1,=,1
2003/12/2,6:15,13.8,0,61,0,=,1,=,1,19.9,0,=,1,=,1
2003/12/2,6:30,13.7,0,62,0,=,1,=,1,19.8,0,=,1,=,1
2003/12/2,6:45,13.6,0,59,0,=,1,=,1,19.8,0,=,1,=,1
2003/12/2,7:00,13.8,0,59,0,=,1,=,1,20,0,=,1,=,1
2003/12/2,7:15,13.7,0,60,0,=,1,=,1,20.1,0,=,1,=,1
2003/12/2,7:30,13.9,0,58,0,=,1,=,1,20.3,0,=,1,=,1
2003/12/2,7:45,13.9,0,57,0,=,1,=,1,20.3,0,=,1,=,1
2003/12/2,8:00,13.9,0,58,0,=,1,=,1,20.3,0,=,1,=,1
2003/12/2,8:15,14,0,60,0,=,1,=,1,19.9,0,=,1,=,1
2003/12/2,8:30,14.1,0,62,0,=,1,=,1,19.5,0,=,1,=,1
2003/12/2,8:45,15.3,0,57,0,=,1,=,1,19.5,0,=,1,=,1
2003/12/2,9:00,14.6,0,60,0,=,1,=,1,19.4,0,=,1,=,1
2003/12/2,9:15,14.7,0,61,0,=,1,=,1,19.3,0,=,1,=,1
2003/12/2,9:30,15.3,0,54,0,=,1,=,1,19.4,0,=,1,=,1
2003/12/2,9:45,16.3,0,50,0,=,1,=,1,19.4,0,=,1,=,1
2003/12/2,10:00,16.5,0,50,0,=,1,=,1,19.5,0,=,1,=,1
2003/12/2,10:15,16.5,0,51,0,=,1,=,1,19.5,0,=,1,=,1
2003/12/2,10:30,17.2,0,50,0,=,1,=,1,19.5,0,=,1,=,1
2003/12/2,10:45,17.2,0,49,0,=,1,=,1,19.5,0,=,1,=,1
2003/12/2,11:00,17.5,0,48,0,=,1,=,1,19.3,0,=,1,=,1
2003/12/2,11:15,18.6,0,42,0,=,1,=,1,19.3,0,=,1,=,1
2003/12/2,11:30,22.2,0,32,0,=,1,=,1,19.3,0,=,1,=,1
2003/12/2,11:45,20.5,0,36,0,=,1,=,1,19.3,0,=,1,=,1
2003/12/2,12:00,25.1,0,26,0,=,1,=,1,19.3,0,=,1,=,1
2003/12/2,12:15,21.2,0,37,0,=,1,=,1,19.3,0,=,1,=,1
2003/12/2,12:30,19.6,0,41,0,=,1,=,1,19.3,0,=,1,=,1
2003/12/2,12:45,19,0,42,0,=,1,=,1,19.3,0,=,1,=,1
2003/12/2,13:00,19.7,0,39,0,=,1,=,1,19.3,0,=,1,=,1
2003/12/2,13:15,20.4,0,36,0,=,1,=,1,19.4,0,=,1,=,1
2003/12/2,13:30,19.6,0,39,0,=,1,=,1,19.4,0,=,1,=,1
2003/12/2,13:45,19.4,0,42,0,=,1,=,1,19.5,0,=,1,=,1
2003/12/2,14:00,19.8,0,42,0,=,1,=,1,19.6,0,=,1,=,1
2003/12/2,14:15,19.2,0,40,0,=,1,=,1,19.6,0,=,1,=,1
2003/12/2,14:30,19.6,0,39,0,=,1,=,1,19.7,0,=,1,=,1
2003/12/2,14:45,19.6,0,39,0,=,1,=,1,19.7,0,=,1,=,1
2003/12/2,15:00,18.8,0,41,0,=,1,=,1,19.7,0,=,1,=,1
2003/12/2,15:15,18.2,0,41,0,=,1,=,1,21.3,0,=,1,=,1
2003/12/2,15:30,17.8,0,43,0,=,1,=,1,21.8,0,=,1,=,1
2003/12/2,15:45,17.4,0,45,0,=,1,=,1,22.4,0,=,1,=,1
2003/12/2,16:00,17.3,0,45,0,=,1,=,1,22.9,0,=,1,=,1
2003/12/2,16:15,17.2,0,48,0,=,1,=,1,23.1,0,=,1,=,1
2003/12/2,16:30,16.9,0,51,0,=,1,=,1,23.4,0,=,1,=,1
2003/12/2,16:45,16.4,0,52,0,=,1,=,1,23.2,0,=,1,=,1
2003/12/2,17:00,16.2,0,54,0,=,1,=,1,23.5,0,=,1,=,1
2003/12/2,17:15,16,0,54,0,=,1,=,1,24.1,0,=,1,=,1
2003/12/2,17:30,15.7,0,55,0,=,1,=,1,23.8,0,=,1,=,1
2003/12/2,17:45,15.6,0,56,0,=,1,=,1,23.5,0,=,1,=,1
2003/12/2,18:00,15.4,0,57,0,=,1,=,1,23.3,0,=,1,=,1
2003/12/2,18:15,15.3,0,56,0,=,1,=,1,22.9,0,=,1,=,1
2003/12/2,18:30,15.2,0,57,0,=,1,=,1,22.8,0,=,1,=,1
2003/12/2,18:45,15.2,0,57,0,=,1,=,1,22.5,0,=,1,=,1
2003/12/2,19:00,15.3,0,58,0,=,1,=,1,22.2,0,=,1,=,1
2003/12/2,19:15,15.2,0,60,0,=,1,=,1,22.6,0,=,1,=,1
2003/12/2,19:30,15,0,59,0,=,1,=,1,22.8,0,=,1,=,1
2003/12/2,19:45,15,0,60,0,=,1,=,1,23,0,=,1,=,1
2003/12/2,20:00,14.8,0,61,0,=,1,=,1,22.7,0,=,1,=,1
2003/12/2,20:15,14.5,0,61,0,=,1,=,1,22.9,0,=,1,=,1
2003/12/2,20:30,14.3,0,61,0,=,1,=,1,23,0,=,1,=,1
2003/12/2,20:45,14,0,64,0,=,1,=,1,23,0,=,1,=,1
2003/12/2,21:00,13.5,0,68,0,=,1,=,1,23,0,=,1,=,1
2003/12/2,21:15,13.3,0,69,0,=,1,=,1,22.8,0,=,1,=,1
2003/12/2,21:30,13.1,0,69,0,=,1,=,1,22.8,0,=,1,=,1
2003/12/2,21:45,13,0,69,0,=,1,=,1,22.8,0,=,1,=,1
2003/12/2,22:00,12.7,0,73,0,=,1,=,1,22.7,0,=,1,=,1
2003/12/2,22:15,12.5,0,71,0,=,1,=,1,22.6,0,=,1,=,1
2003/12/2,22:30,12.2,0,74,0,=,1,=,1,22.6,0,=,1,=,1
2003/12/2,22:45,11.9,0,76,0,=,1,=,1,22.5,0,=,1,=,1
2003/12/2,23:00,12,0,77,0,=,1,=,1,22.5,0,=,1,=,1
2003/12/2,23:15,12,0,76,0,=,1,=,1,22.1,0,=,1,=,1
2003/12/2,23:30,11.8,0,77,0,=,1,=,1,22.3,0,=,1,=,1
2003/12/2,23:45,12,0,74,0,=,1,=,1,22.4,0,=,1,=,1
2003/12/3,0:00,12,0,76,0,=,1,=,1,22.4,0,=,1,=,1
2003/12/3,0:15,12.1,0,75,0,=,1,=,1,22.4,0,=,1,=,1
2003/12/3,0:30,12.1,0,77,0,=,1,=,1,22.3,0,=,1,=,1
2003/12/3,0:45,12,0,78,0,=,1,=,1,22.3,0,=,1,=,1
2003/12/3,1:00,12.3,0,77,0,=,1,=,1,22.2,0,=,1,=,1
2003/12/3,1:15,12.2,0,80,0,=,1,=,1,22.2,0,=,1,=,1
2003/12/3,1:30,12.3,0,78,0,=,1,=,1,22.1,0,=,1,=,1
2003/12/3,1:45,12.3,0,78,0,=,1,=,1,22,0,=,1,=,1
2003/12/3,2:00,12,0,79,0,=,1,=,1,22,0,=,1,=,1
2003/12/3,2:15,11.9,0,78,0,=,1,=,1,21.9,0,=,1,=,1
2003/12/3,2:30,12,0,77,0,=,1,=,1,21.8,0,=,1,=,1
2003/12/3,2:45,11.6,0,80,0,=,1,=,1,21.7,0,=,1,=,1
2003/12/3,3:00,11.6,0,83,0,=,1,=,1,21.7,0,=,1,=,1
2003/12/3,3:15,11.5,0,83,0,=,1,=,1,21.6,0,=,1,=,1
2003/12/3,3:30,11.4,0,82,0,=,1,=,1,21.5,0,=,1,=,1
2003/12/3,3:45,11.4,0,82,0,=,1,=,1,21.4,0,=,1,=,1
2003/12/3,4:00,11.2,0,84,0,=,1,=,1,21.3,0,=,1,=,1
2003/12/3,4:15,11.1,0,85,0,=,1,=,1,21.3,0,=,1,=,1
2003/12/3,4:30,11.1,0,85,0,=,1,=,1,21.2,0,=,1,=,1
2003/12/3,4:45,11.1,0,83,0,=,1,=,1,21.1,0,=,1,=,1
2003/12/3,5:00,10.8,0,85,0,=,1,=,1,21,0,=,1,=,1
2003/12/3,5:15,10.7,0,85,0,=,1,=,1,20.9,0,=,1,=,1
2003/12/3,5:30,10.5,0,85,0,=,1,=,1,20.9,0,=,1,=,1
2003/12/3,5:45,10.1,0,86,0,=,1,=,1,20.8,0,=,1,=,1
2003/12/3,6:00,10.1,0,87,0,=,1,=,1,20.7,0,=,1,=,1
2003/12/3,6:15,9.8,0,88,0,=,1,=,1,20.6,0,=,1,=,1
2003/12/3,6:30,9.8,0,88,0,=,1,=,1,20.6,0,=,1,=,1
2003/12/3,6:45,9.8,0,89,0,=,1,=,1,20.5,0,=,1,=,1
2003/12/3,7:00,9.8,0,87,0,=,1,=,1,20.6,0,=,1,=,1
2003/12/3,7:15,9.9,0,87,0,=,1,=,1,20.6,0,=,1,=,1
2003/12/3,7:30,10.1,0,87,0,=,1,=,1,20.5,0,=,1,=,1
2003/12/3,7:45,10.4,0,86,0,=,1,=,1,20.6,0,=,1,=,1
2003/12/3,8:00,13.7,0,73,0,=,1,=,1,20.8,0,=,1,=,1
2003/12/3,8:15,14.5,0,64,0,=,1,=,1,20.5,0,=,1,=,1
2003/12/3,8:30,15.9,0,59,0,=,1,=,1,20.3,0,=,1,=,1
2003/12/3,8:45,17.2,0,55,0,=,1,=,1,20,0,=,1,=,1
2003/12/3,9:00,18.6,0,51,0,=,1,=,1,19.5,0,=,1,=,1
2003/12/3,9:15,20.1,0,45,0,=,1,=,1,19.2,0,=,1,=,1
2003/12/3,9:30,21.1,0,42,0,=,1,=,1,18.8,0,=,1,=,1
2003/12/3,9:45,22.9,0,36,0,=,1,=,1,18.7,0,=,1,=,1
2003/12/3,10:00,24.3,0,33,0,=,1,=,1,18.6,0,=,1,=,1
2003/12/3,10:15,25.6,0,29,0,=,1,=,1,18.7,0,=,1,=,1
2003/12/3,10:30,26.7,0,24,0,=,1,=,1,18.8,0,=,1,=,1
2003/12/3,10:45,28.2,0,21,0,=,1,=,1,18.9,0,=,1,=,1
2003/12/3,11:00,28.2,0,20,0,=,1,=,1,19.1,0,=,1,=,1
2003/12/3,11:15,27.2,0,19,0,=,1,=,1,19.2,0,=,1,=,1
2003/12/3,11:30,29.3,0,16,0,=,1,=,1,19.1,0,=,1,=,1
2003/12/3,11:45,31.3,0,13,0,=,1,=,1,19.1,0,=,1,=,1
2003/12/3,12:00,32.2,0,13,0,=,1,=,1,19.1,0,=,1,=,1
2003/12/3,12:15,30.3,0,14,0,=,1,=,1,19.1,0,=,1,=,1
2003/12/3,12:30,26.3,0,19,0,=,1,=,1,19.1,0,=,1,=,1
2003/12/3,12:45,24.8,0,22,0,=,1,=,1,19.1,0,=,1,=,1
2003/12/3,13:00,24.3,0,24,0,=,1,=,1,19.1,0,=,1,=,1
2003/12/3,13:15,23.3,0,27,0,=,1,=,1,19.1,0,=,1,=,1
2003/12/3,13:30,21.9,0,32,0,=,1,=,1,19.1,0,=,1,=,1
2003/12/3,13:45,22.4,0,31,0,=,1,=,1,19.1,0,=,1,=,1
2003/12/3,14:00,21.4,0,33,0,=,1,=,1,19.1,0,=,1,=,1
2003/12/3,14:15,21.4,0,32,0,=,1,=,1,19.1,0,=,1,=,1
2003/12/3,14:30,20.9,0,33,0,=,1,=,1,19.1,0,=,1,=,1
2003/12/3,14:45,20.4,0,33,0,=,1,=,1,19.1,0,=,1,=,1
2003/12/3,15:00,20.4,0,32,0,=,1,=,1,19,0,=,1,=,1
2003/12/3,15:15,20.6,0,31,0,=,1,=,1,19,0,=,1,=,1
2003/12/3,15:30,19.6,0,32,0,=,1,=,1,19.1,0,=,1,=,1
2003/12/3,15:45,19.1,0,35,0,=,1,=,1,19,0,=,1,=,1
2003/12/3,16:00,18,0,37,0,=,1,=,1,19,0,=,1,=,1
2003/12/3,16:15,17.5,0,40,0,=,1,=,1,19,0,=,1,=,1
2003/12/3,16:30,17.5,0,40,0,=,1,=,1,19.1,0,=,1,=,1
2003/12/3,16:45,17,0,43,0,=,1,=,1,19.1,0,=,1,=,1
2003/12/3,17:00,16.4,0,45,0,=,1,=,1,19.1,0,=,1,=,1
2003/12/3,17:15,16,0,49,0,=,1,=,1,19.1,0,=,1,=,1
2003/12/3,17:30,15.6,0,50,0,=,1,=,1,19.2,0,=,1,=,1
2003/12/3,17:45,15.1,0,54,0,=,1,=,1,19.3,0,=,1,=,1
2003/12/3,18:00,14.6,0,53,0,=,1,=,1,19.3,0,=,1,=,1
2003/12/3,18:15,14.1,0,55,0,=,1,=,1,19.4,0,=,1,=,1
2003/12/3,18:30,13.6,0,57,0,=,1,=,1,19.5,0,=,1,=,1
2003/12/3,18:45,13.2,0,59,0,=,1,=,1,19.4,0,=,1,=,1
2003/12/3,19:00,13,0,61,0,=,1,=,1,19.4,0,=,1,=,1
2003/12/3,19:15,12.7,0,61,0,=,1,=,1,19.5,0,=,1,=,1
2003/12/3,19:30,12.4,0,65,0,=,1,=,1,19.6,0,=,1,=,1
2003/12/3,19:45,12.1,0,67,0,=,1,=,1,19.9,0,=,1,=,1
2003/12/3,20:00,12,0,67,0,=,1,=,1,20.2,0,=,1,=,1
2003/12/3,20:15,11.6,0,65,0,=,1,=,1,20.4,0,=,1,=,1
2003/12/3,20:30,11.5,0,66,0,=,1,=,1,20.5,0,=,1,=,1
2003/12/3,20:45,11,0,70,0,=,1,=,1,20.6,0,=,1,=,1
2003/12/3,21:00,10.8,0,72,0,=,1,=,1,20.7,0,=,1,=,1
2003/12/3,21:15,10.8,0,69,0,=,1,=,1,20.5,0,=,1,=,1
2003/12/3,21:30,10.5,0,72,0,=,1,=,1,20.6,0,=,1,=,1
2003/12/3,21:45,10.3,0,72,0,=,1,=,1,21,0,=,1,=,1
2003/12/3,22:00,10.4,0,70,0,=,1,=,1,20.9,0,=,1,=,1
2003/12/3,22:15,9.7,0,74,0,=,1,=,1,21.1,0,=,1,=,1
2003/12/3,22:30,9.6,0,74,0,=,1,=,1,21.2,0,=,1,=,1
2003/12/3,22:45,9.3,0,75,0,=,1,=,1,21.2,0,=,1,=,1
2003/12/3,23:00,9.5,0,72,0,=,1,=,1,21.2,0,=,1,=,1
2003/12/3,23:15,8.9,0,75,0,=,1,=,1,21.2,0,=,1,=,1
2003/12/3,23:30,8.8,0,75,0,=,1,=,1,21.1,0,=,1,=,1
2003/12/3,23:45,8.5,0,76,0,=,1,=,1,21.1,0,=,1,=,1
2003/12/4,0:00,8.3,0,78,0,=,1,=,1,21,0,=,1,=,1
2003/12/4,0:15,8.6,0,73,0,=,1,=,1,20.9,0,=,1,=,1
2003/12/4,0:30,8.2,0,75,0,=,1,=,1,20.8,0,=,1,=,1
2003/12/4,0:45,8,0,77,0,=,1,=,1,20.7,0,=,1,=,1
2003/12/4,1:00,8,0,74,0,=,1,=,1,20.6,0,=,1,=,1
2003/12/4,1:15,7.6,0,76,0,=,1,=,1,20.5,0,=,1,=,1
2003/12/4,1:30,7.4,0,78,0,=,1,=,1,20.4,0,=,1,=,1
2003/12/4,1:45,7.3,0,78,0,=,1,=,1,20.3,0,=,1,=,1
2003/12/4,2:00,7.3,0,76,0,=,1,=,1,20.2,0,=,1,=,1
2003/12/4,2:15,7.3,0,76,0,=,1,=,1,20.1,0,=,1,=,1
2003/12/4,2:30,7.2,0,76,0,=,1,=,1,20,0,=,1,=,1
2003/12/4,2:45,7.1,0,75,0,=,1,=,1,19.9,0,=,1,=,1
2003/12/4,3:00,6.7,0,78,0,=,1,=,1,19.8,0,=,1,=,1
2003/12/4,3:15,6.8,0,78,0,=,1,=,1,19.8,0,=,1,=,1
2003/12/4,3:30,6.4,0,78,0,=,1,=,1,19.7,0,=,1,=,1
2003/12/4,3:45,6.8,0,74,0,=,1,=,1,19.6,0,=,1,=,1
2003/12/4,4:00,6.6,0,77,0,=,1,=,1,19.5,0,=,1,=,1
2003/12/4,4:15,7,0,71,0,=,1,=,1,19.4,0,=,1,=,1
2003/12/4,4:30,6.7,0,73,0,=,1,=,1,19.3,0,=,1,=,1
2003/12/4,4:45,6.4,0,77,0,=,1,=,1,19.3,0,=,1,=,1
2003/12/4,5:00,6.3,0,77,0,=,1,=,1,19.2,0,=,1,=,1
2003/12/4,5:15,6.3,0,78,0,=,1,=,1,19.1,0,=,1,=,1
2003/12/4,5:30,6,0,80,0,=,1,=,1,19,0,=,1,=,1
2003/12/4,5:45,6,0,80,0,=,1,=,1,19,0,=,1,=,1
2003/12/4,6:00,5.8,0,81,0,=,1,=,1,19,0,=,1,=,1
2003/12/4,6:15,5.8,0,81,0,=,1,=,1,18.9,0,=,1,=,1
2003/12/4,6:30,5.8,0,81,0,=,1,=,1,18.9,0,=,1,=,1
2003/12/4,6:45,5.7,0,82,0,=,1,=,1,18.8,0,=,1,=,1
2003/12/4,7:00,6,0,83,0,=,1,=,1,18.9,0,=,1,=,1
2003/12/4,7:15,5.7,0,81,0,=,1,=,1,19.1,0,=,1,=,1
2003/12/4,7:30,5.8,0,83,0,=,1,=,1,18.8,0,=,1,=,1
2003/12/4,7:45,8.8,0,75,0,=,1,=,1,18.7,0,=,1,=,1
2003/12/4,8:00,11.2,0,59,0,=,1,=,1,18.5,0,=,1,=,1
2003/12/4,8:15,10.8,0,58,0,=,1,=,1,18.3,0,=,1,=,1
2003/12/4,8:30,12,0,56,0,=,1,=,1,18.2,0,=,1,=,1
2003/12/4,8:45,14,0,50,0,=,1,=,1,17.7,0,=,1,=,1
2003/12/4,9:00,15.4,0,49,0,=,1,=,1,17.1,0,=,1,=,1
2003/12/4,9:15,17.1,0,46,0,=,1,=,1,16.9,0,=,1,=,1
2003/12/4,9:30,18.5,0,42,0,=,1,=,1,16.8,0,=,1,=,1
2003/12/4,9:45,20.1,0,38,0,=,1,=,1,16.8,0,=,1,=,1
2003/12/4,10:00,22,0,29,0,=,1,=,1,16.8,0,=,1,=,1
2003/12/4,10:15,23.5,0,22,0,=,1,=,1,16.9,0,=,1,=,1
2003/12/4,10:30,24.4,0,20,0,=,1,=,1,17,0,=,1,=,1
2003/12/4,10:45,25.3,0,16,0,=,1,=,1,17.2,0,=,1,=,1
2003/12/4,11:00,26.4,0,14,0,=,1,=,1,17.2,0,=,1,=,1
2003/12/4,11:15,26.7,0,13,0,=,1,=,1,17.2,0,=,1,=,1
2003/12/4,11:30,28.3,0,13,0,=,1,=,1,17.3,0,=,1,=,1
2003/12/4,11:45,30,0,12,0,=,1,=,1,17.2,0,=,1,=,1
2003/12/4,12:00,31.2,0,12,0,=,1,=,1,17.2,0,=,1,=,1
2003/12/4,12:15,28.4,0,13,0,=,1,=,1,17.2,0,=,1,=,1
2003/12/4,12:30,26.7,0,14,0,=,1,=,1,17.2,0,=,1,=,1
2003/12/4,12:45,25.7,0,15,0,=,1,=,1,17.2,0,=,1,=,1
2003/12/4,13:00,24.8,0,15,0,=,1,=,1,17.2,0,=,1,=,1
2003/12/4,13:15,23.9,0,17,0,=,1,=,1,17.2,0,=,1,=,1
2003/12/4,13:30,23.3,0,20,0,=,1,=,1,17.2,0,=,1,=,1
2003/12/4,13:45,22.8,0,23,0,=,1,=,1,17.2,0,=,1,=,1
2003/12/4,14:00,22.2,0,25,0,=,1,=,1,17.2,0,=,1,=,1
2003/12/4,14:15,21.2,0,27,0,=,1,=,1,17.2,0,=,1,=,1
2003/12/4,14:30,20.4,0,28,0,=,1,=,1,17.5,0,=,1,=,1
2003/12/4,14:45,19.8,0,28,0,=,1,=,1,17.9,0,=,1,=,1
2003/12/4,15:00,19.4,0,27,0,=,1,=,1,18.1,0,=,1,=,1
2003/12/4,15:15,19,0,27,0,=,1,=,1,18.3,0,=,1,=,1
2003/12/4,15:30,18.3,0,29,0,=,1,=,1,18.4,0,=,1,=,1
2003/12/4,15:45,18,0,30,0,=,1,=,1,19.7,0,=,1,=,1
2003/12/4,16:00,17.3,0,32,0,=,1,=,1,20.2,0,=,1,=,1
2003/12/4,16:15,16.9,0,36,0,=,1,=,1,21,0,=,1,=,1
2003/12/4,16:30,15.6,0,37,0,=,1,=,1,21.7,0,=,1,=,1
2003/12/4,16:45,15,0,39,0,=,1,=,1,22.1,0,=,1,=,1
2003/12/4,17:00,14.4,0,38,0,=,1,=,1,22.2,0,=,1,=,1
2003/12/4,17:15,14,0,40,0,=,1,=,1,22.1,0,=,1,=,1
2003/12/4,17:30,13.6,0,42,0,=,1,=,1,22.1,0,=,1,=,1
2003/12/4,17:45,13.6,0,43,0,=,1,=,1,22.1,0,=,1,=,1
2003/12/4,18:00,12.4,0,46,0,=,1,=,1,21.9,0,=,1,=,1
2003/12/4,18:15,11.9,0,49,0,=,1,=,1,20.9,0,=,1,=,1
2003/12/4,18:30,11.2,0,51,0,=,1,=,1,20.6,0,=,1,=,1
2003/12/4,18:45,11.2,0,51,0,=,1,=,1,20.4,0,=,1,=,1
2003/12/4,19:00,11,0,51,0,=,1,=,1,20.2,0,=,1,=,1
2003/12/4,19:15,10.7,0,53,0,=,1,=,1,20.1,0,=,1,=,1
2003/12/4,19:30,10.4,0,55,0,=,1,=,1,19.9,0,=,1,=,1
2003/12/4,19:45,10.3,0,57,0,=,1,=,1,19.7,0,=,1,=,1
2003/12/4,20:00,10.1,0,59,0,=,1,=,1,20,0,=,1,=,1
2003/12/4,20:15,10,0,60,0,=,1,=,1,20.3,0,=,1,=,1
2003/12/4,20:30,9.7,0,62,0,=,1,=,1,20.3,0,=,1,=,1
2003/12/4,20:45,9.5,0,62,0,=,1,=,1,20.3,0,=,1,=,1
2003/12/4,21:00,9.1,0,64,0,=,1,=,1,19.9,0,=,1,=,1
2003/12/4,21:15,8.9,0,65,0,=,1,=,1,19.6,0,=,1,=,1
2003/12/4,21:30,9,0,64,0,=,1,=,1,19.8,0,=,1,=,1
2003/12/4,21:45,9.1,0,63,0,=,1,=,1,20.1,0,=,1,=,1
2003/12/4,22:00,9.5,0,61,0,=,1,=,1,20.3,0,=,1,=,1
2003/12/4,22:15,9.7,0,59,0,=,1,=,1,20.4,0,=,1,=,1
2003/12/4,22:30,10.1,0,57,0,=,1,=,1,20,0,=,1,=,1
2003/12/4,22:45,10.1,0,59,0,=,1,=,1,19.9,0,=,1,=,1
2003/12/4,23:00,9.9,0,60,0,=,1,=,1,20,0,=,1,=,1
2003/12/4,23:15,10,0,61,0,=,1,=,1,20.1,0,=,1,=,1
2003/12/4,23:30,10.1,0,63,0,=,1,=,1,20.2,0,=,1,=,1
2003/12/4,23:45,10,0,63,0,=,1,=,1,20.3,0,=,1,=,1
2003/12/5,0:00,10.1,0,64,0,=,1,=,1,20.3,0,=,1,=,1
2003/12/5,0:15,10.1,0,64,0,=,1,=,1,20.2,0,=,1,=,1
2003/12/5,0:30,9.9,0,66,0,=,1,=,1,20.1,0,=,1,=,1
2003/12/5,0:45,9.8,0,66,0,=,1,=,1,20,0,=,1,=,1
2003/12/5,1:00,9.8,0,65,0,=,1,=,1,19.9,0,=,1,=,1
2003/12/5,1:15,9.6,0,66,0,=,1,=,1,19.9,0,=,1,=,1
2003/12/5,1:30,9.7,0,67,0,=,1,=,1,19.8,0,=,1,=,1
2003/12/5,1:45,9.6,0,68,0,=,1,=,1,19.8,0,=,1,=,1
2003/12/5,2:00,9.6,0,68,0,=,1,=,1,19.7,0,=,1,=,1
2003/12/5,2:15,9.7,0,67,0,=,1,=,1,19.6,0,=,1,=,1
2003/12/5,2:30,9.6,0,69,0,=,1,=,1,19.6,0,=,1,=,1
2003/12/5,2:45,9.7,0,68,0,=,1,=,1,19.5,0,=,1,=,1
2003/12/5,3:00,9.6,0,66,0,=,1,=,1,19.5,0,=,1,=,1
2003/12/5,3:15,9.7,0,67,0,=,1,=,1,19.4,0,=,1,=,1
2003/12/5,3:30,9.7,0,68,0,=,1,=,1,19.4,0,=,1,=,1
2003/12/5,3:45,9.5,0,69,0,=,1,=,1,19.3,0,=,1,=,1
2003/12/5,4:00,9.6,0,67,0,=,1,=,1,19.2,0,=,1,=,1
2003/12/5,4:15,9.5,0,70,0,=,1,=,1,19.2,0,=,1,=,1
2003/12/5,4:30,9.4,0,69,0,=,1,=,1,19.1,0,=,1,=,1
2003/12/5,4:45,9.2,0,71,0,=,1,=,1,19.1,0,=,1,=,1
2003/12/5,5:00,9.2,0,73,0,=,1,=,1,19,0,=,1,=,1
2003/12/5,5:15,9.2,0,72,0,=,1,=,1,19,0,=,1,=,1
2003/12/5,5:30,9.2,0,73,0,=,1,=,1,18.9,0,=,1,=,1
2003/12/5,5:45,9,0,72,0,=,1,=,1,18.9,0,=,1,=,1
2003/12/5,6:00,9.2,0,71,0,=,1,=,1,18.9,0,=,1,=,1
2003/12/5,6:15,9.1,0,70,0,=,1,=,1,18.8,0,=,1,=,1
2003/12/5,6:30,9.2,0,69,0,=,1,=,1,18.8,0,=,1,=,1
2003/12/5,6:45,9.1,0,71,0,=,1,=,1,18.8,0,=,1,=,1
2003/12/5,7:00,9.3,0,70,0,=,1,=,1,18.8,0,=,1,=,1
2003/12/5,7:15,9.2,0,75,0,=,1,=,1,18.9,0,=,1,=,1
2003/12/5,7:30,9.2,0,75,0,=,1,=,1,18.8,0,=,1,=,1
2003/12/5,7:45,9.4,0,66,0,=,1,=,1,18.8,0,=,1,=,1
2003/12/5,8:00,10.2,0,60,0,=,1,=,1,19.1,0,=,1,=,1
2003/12/5,8:15,10.2,0,67,0,=,1,=,1,19.1,0,=,1,=,1
2003/12/5,8:30,10.5,0,69,0,=,1,=,1,19.2,0,=,1,=,1
2003/12/5,8:45,11.1,0,66,0,=,1,=,1,19.1,0,=,1,=,1
2003/12/5,9:00,11.8,0,59,0,=,1,=,1,18.9,0,=,1,=,1
2003/12/5,9:15,11.9,0,61,0,=,1,=,1,18.5,0,=,1,=,1
2003/12/5,9:30,12.1,0,59,0,=,1,=,1,18.1,0,=,1,=,1
2003/12/5,9:45,12.3,0,56,0,=,1,=,1,18.4,0,=,1,=,1
2003/12/5,10:00,12.8,0,54,0,=,1,=,1,18.4,0,=,1,=,1
2003/12/5,10:15,13.9,0,49,0,=,1,=,1,18.2,0,=,1,=,1
2003/12/5,10:30,14,0,50,0,=,1,=,1,18.1,0,=,1,=,1
2003/12/5,10:45,14.5,0,49,0,=,1,=,1,18,0,=,1,=,1
2003/12/5,11:00,15.3,0,47,0,=,1,=,1,17.9,0,=,1,=,1
2003/12/5,11:15,16.9,0,42,0,=,1,=,1,17.9,0,=,1,=,1
2003/12/5,11:30,18.5,0,37,0,=,1,=,1,18,0,=,1,=,1
2003/12/5,11:45,22.8,0,26,0,=,1,=,1,18,0,=,1,=,1
2003/12/5,12:00,19.4,0,32,0,=,1,=,1,18.1,0,=,1,=,1
2003/12/5,12:15,18.7,0,35,0,=,1,=,1,18.1,0,=,1,=,1
2003/12/5,12:30,19.8,0,39,0,=,1,=,1,18.1,0,=,1,=,1
2003/12/5,12:45,20.8,0,35,0,=,1,=,1,18.1,0,=,1,=,1
2003/12/5,13:00,19.8,0,37,0,=,1,=,1,18.2,0,=,1,=,1
2003/12/5,13:15,19.1,0,37,0,=,1,=,1,18.2,0,=,1,=,1
2003/12/5,13:30,19.5,0,39,0,=,1,=,1,18.2,0,=,1,=,1
2003/12/5,13:45,19.1,0,40,0,=,1,=,1,18.3,0,=,1,=,1
2003/12/5,14:00,18.6,0,42,0,=,1,=,1,18.3,0,=,1,=,1
2003/12/5,14:15,17.9,0,44,0,=,1,=,1,18.4,0,=,1,=,1
2003/12/5,14:30,17.5,0,45,0,=,1,=,1,18.4,0,=,1,=,1
2003/12/5,14:45,17.5,0,46,0,=,1,=,1,18.5,0,=,1,=,1
2003/12/5,15:00,17.3,0,47,0,=,1,=,1,18.5,0,=,1,=,1
2003/12/5,15:15,17.1,0,48,0,=,1,=,1,18.5,0,=,1,=,1
2003/12/5,15:30,16.8,0,51,0,=,1,=,1,18.5,0,=,1,=,1
2003/12/5,15:45,16.9,0,50,0,=,1,=,1,18.6,0,=,1,=,1
2003/12/5,16:00,16.4,0,53,0,=,1,=,1,18.5,0,=,1,=,1
2003/12/5,16:15,16.2,0,54,0,=,1,=,1,18.5,0,=,1,=,1
2003/12/5,16:30,15.8,0,59,0,=,1,=,1,18.6,0,=,1,=,1
2003/12/5,16:45,15.3,0,61,0,=,1,=,1,18.7,0,=,1,=,1
2003/12/5,17:00,15.2,0,59,0,=,1,=,1,18.6,0,=,1,=,1
2003/12/5,17:15,14.9,0,65,0,=,1,=,1,18.5,0,=,1,=,1
2003/12/5,17:30,14.6,0,66,0,=,1,=,1,18.5,0,=,1,=,1
2003/12/5,17:45,14.4,0,64,0,=,1,=,1,18.7,0,=,1,=,1
2003/12/5,18:00,14.4,0,70,0,=,1,=,1,18.8,0,=,1,=,1
2003/12/5,18:15,14,0,74,0,=,1,=,1,18.8,0,=,1,=,1
2003/12/5,18:30,13.9,0,76,0,=,1,=,1,18.9,0,=,1,=,1
2003/12/5,18:45,13.9,0,77,0,=,1,=,1,18.9,0,=,1,=,1
2003/12/5,19:00,13.6,0,79,0,=,1,=,1,19,0,=,1,=,1
2003/12/5,19:15,13.3,0,83,0,=,1,=,1,19,0,=,1,=,1
2003/12/5,19:30,13.1,0,84,0,=,1,=,1,18.9,0,=,1,=,1
2003/12/5,19:45,12.9,0,84,0,=,1,=,1,19.1,0,=,1,=,1
2003/12/5,20:00,13.2,0,86,0,=,1,=,1,19.5,0,=,1,=,1
2003/12/5,20:15,13.1,0,89,0,=,1,=,1,19.8,0,=,1,=,1
2003/12/5,20:30,13.2,0,89,0,=,1,=,1,19.8,0,=,1,=,1